Weather History for Lubbock, TX

Change the Weather History Date:

Sunday, October 30, 2011

  Actual Average Record
Temperature  
Mean Temperature 53 °F 57 °F  
Max Temperature 66 °F 71 °F 90 °F (2010)
Min Temperature 40 °F 43 °F 18 °F (1993)
Degree Days  
Heating Degree Days 12 9  
Month to date heating degree days 132 150  
Since 1 July heating degree days 143 173  
Cooling Degree Days 0 0  
Month to date cooling degree days 66 54  
Year to date cooling degree days 2594 1803  
Growing Degree Days 2 (Base 50)    
Moisture  
Dew Point 36 °F    
Average Humidity 59    
Maximum Humidity 86    
Minimum Humidity 31    
Precipitation  
Precipitation 0.00 in 0.04 in 0.74 in (1941)
Month to date precipitation 1.34 1.88  
Year to date precipitation 4.08 17.46  
Snow  
Snow 0.00 in 0.00 in - ()
Month to date snowfall T 0.0  
Since 1 July snowfall T 0.0  
Since 1 September snowfall T 0.0  
Snow Depth 0.00 in    
Sea Level Pressure  
Sea Level Pressure 30.07 in    
Wind  
Wind Speed 10 mph (NNE)    
Max Wind Speed 24 mph    
Max Gust Speed 29 mph    
Visibility 10 miles    
Events      
T = Trace of Precipitation, MM = Missing Value Source: NWS Daily Summary

Daily Weather History Graph

Daily Weather History Graph

Search for Another Location

Airport:

Trip Planner

Search our weather history database for the weather conditions in past years. The results will help you decide how hot, cold, wet, or windy it might be!

Date:

Astronomy

Oct. 30, 2011 Rise Set
Actual Time 8:04 AM CDT 6:57 PM CDT
Civil Twilight 7:38 AM CDT 7:22 PM CDT
Nautical Twilight 7:09 AM CDT 7:52 PM CDT
Astronomical Twilight 6:40 AM CDT 8:21 PM CDT
Moon 12:17 PM CDT (10/30) 10:35 PM CDT (10/30)
Length of Visible Light 11h 44m
Length of Day
10h 52m
Waxing Crescent, 20% of the Moon is Illuminated
Oct 30
Waxing Crescent
Nov 2
First Quarter
Nov 10
Full
Nov 18
Last Quarter
Nov 25
New

Hourly Weather History & Observations

Time (CDT) Temp. Windchill Dew Point Humidity Pressure Visibility Wind Dir Wind Speed Gust Speed Precip Events Conditions
12:53 AM 52.0 °F - 35.1 °F 53% 29.91 in 10.0 mi SW 10.4 mph - N/A   Partly Cloudy
1:53 AM 48.9 °F - 35.1 °F 59% 29.92 in 10.0 mi SW 8.1 mph - N/A   Partly Cloudy
2:53 AM 46.0 °F 41.4 °F 36.0 °F 68% 29.92 in 10.0 mi WSW 9.2 mph - N/A   Mostly Cloudy
3:53 AM 46.0 °F 41.0 °F 36.0 °F 68% 29.89 in 10.0 mi WSW 10.4 mph - N/A   Mostly Cloudy
4:53 AM 42.1 °F 38.4 °F 37.0 °F 82% 29.91 in 10.0 mi West 5.8 mph - N/A   Mostly Cloudy
5:53 AM 41.0 °F 35.8 °F 37.0 °F 86% 29.94 in 10.0 mi West 8.1 mph - N/A   Scattered Clouds
6:53 AM 44.6 °F 38.8 °F 39.2 °F 81% 30.02 in 10.0 mi North 11.5 mph - N/A   Partly Cloudy
7:53 AM 46.0 °F 39.3 °F 39.0 °F 76% 30.00 in 10.0 mi NNE 16.1 mph - N/A   Scattered Clouds
8:53 AM 46.4 °F 39.5 °F 37.4 °F 71% 30.11 in 10.0 mi NNE 17.3 mph - N/A   Scattered Clouds
9:53 AM 51.1 °F - 35.1 °F 54% 30.10 in 10.0 mi North 18.4 mph 26.5 mph N/A   Scattered Clouds
10:53 AM 54.0 °F - 34.0 °F 47% 30.10 in 10.0 mi North - - N/A   Partly Cloudy
11:53 AM 57.9 °F - 34.0 °F 41% 30.11 in 10.0 mi NNE 17.3 mph 26.5 mph N/A   Partly Cloudy
12:53 PM 61.0 °F - 35.1 °F 38% 30.11 in 10.0 mi NNE 16.1 mph 24.2 mph N/A   Clear
1:53 PM 63.0 °F - 35.1 °F 35% 30.11 in 10.0 mi NE 15.0 mph 23.0 mph N/A   Clear
2:53 PM 64.0 °F - 34.0 °F 33% 30.09 in 10.0 mi NE 15.0 mph 23.0 mph N/A   Clear
3:53 PM 64.9 °F - 34.0 °F 32% 30.10 in 10.0 mi NE 12.7 mph - N/A   Clear
4:53 PM 64.9 °F - 34.0 °F 32% 30.11 in 10.0 mi NE 9.2 mph - N/A   Clear
5:53 PM 62.6 °F - 33.8 °F 34% 30.18 in 10.0 mi ENE 10.4 mph - N/A   Clear
6:53 PM 57.9 °F - 36.0 °F 44% 30.14 in 10.0 mi ENE 8.1 mph - N/A   Clear
7:53 PM 53.1 °F - 36.0 °F 52% 30.18 in 10.0 mi East 4.6 mph - N/A   Clear
8:53 PM 50.0 °F - 37.0 °F 61% 30.19 in 10.0 mi ENE 6.9 mph - N/A   Clear
9:53 PM 46.9 °F - 37.9 °F 71% 30.20 in 10.0 mi Calm Calm - N/A   Clear
10:53 PM 46.9 °F - 37.0 °F 68% 30.20 in 10.0 mi East 3.5 mph - N/A   Clear
11:53 PM 43.0 °F - 37.0 °F 80% 30.20 in 10.0 mi Calm Calm - N/A   Clear